Location: Barcelona
(41.3830°N, 2.1830°E)
Time: 13:55:32
(UTC+01:00)

ISS - Pass Details

Date: 13 December 2017
Orbit: 402 x 406 km, 51.6° (Epoch: 16 December)

Event Time Altitude Azimuth Distance (km) Brightness Sun altitude
Rises 19:37:48 0° 302° (WNW) 2,329 0.7 -24.6°
Reaches altitude 10° 19:39:55 10° 296° (WNW) 1,465 -0.3 -25.0°
Enters shadow 19:41:45 29° 280° (W) 784 -1.8 -25.3°
